Location: Newark
(42.8481°N, 0.4872°E)
Time: 08:02:02
(UTC+00:00)

SR - Pass Details

Date: 08 November 2020
Orbit: 579 x 876 km, 66.7° (Epoch: 29 November)

Event Time Altitude Azimuth Distance (km) Brightness Sun altitude
Rises 23:19:15 0° 211° (SSW) 2,781 - -63.6°
Reaches altitude 10° 23:21:26 10° 213° (SSW) 1,892 - -63.7°
Maximum altitude 23:25:40 82° 302° (WNW) 605 - -63.8°
Drops below altitude 10° 23:30:06 10° 29° (NNE) 1,989 - -64.0°
Sets 23:32:27 0° 31° (NNE) 2,938 - -64.0°
